Location: Blackwall
(51.5097°N, 0.0016°W)
Time: 23:43:23
(UTC+00:00)

Cosmos 468 Rocket - Pass Details

Date: 15 May 2026
Orbit: 740 x 773 km, 74.0° (Epoch: 9 June)

Event Time Altitude Azimuth Distance (km) Brightness Sun altitude
Exits shadow 22:30:14 27° 182° (S) 1,466 4.9 -17.0°
Maximum altitude 22:33:05 63° 109° (ESE) 862 4.0 -17.1°
Drops below altitude 10° 22:38:16 10° 30° (NNE) 2,315 7.0 -17.4°
Sets 22:40:40 0° 27° (NNE) 3,241 7.9 -17.5°
